www.pogodaiklimat.ru

Погода и климат >> Архив погоды >> Гана >> Тема


ПОГОДА в Тема

  • Прогноз погоды в Тема
  • Монитор погоды в Тема

АРХИВ ПОГОДЫ в Тема

Время (UTC), дата Ветер
(напр.,м/с)
 
Видим.   Явления Облачность Т
(С)
Тd
(С)
f
(%)
Тe
(С)
Тes
(С)
Комфортность P
(гПа)
Po
(гПа)
Тmin
(С)
Tmax
(С)
R
(мм)
R24
(мм)
S
(см)
09 9.01 З 3 6000 м мгла ясно +28.2 +24.0 78 +39 +47 очень
душно
1011.7 1012.0
15 9.01 ЮЗ 4 6000 м мгла ясно +30.8 +24.0 67 +42 +48 опасность
перегрева
1007.3 1007.0
18 9.01 З 3 6000 м мгла ясно +29.0 +25.0 79 +42 +42 опасность
перегрева
1007.3 1007.0 +31.5
21 9.01 ЮЗ 3 6000 м дымка ясно +28.5 +25.1 82 +41 +41 опасность
перегрева
1009.9 1010.0
03 10.01 СЗ 1 6000 м дымка 3/3 300 м
[Sc]
+27.2 +24.8 87 +39 +39 очень
душно
1009.1 1009.0
09 10.01 СЗ 3 6000 м мгла 5/3 500 м
[Cu med, cong Ci sp]
+29.0 +25.0 79 +42 +47 опасность
перегрева
1011.2 1011.0
12 10.01 СЗ 3 6000 м мгла 5/3 500 м
[Cu med, cong Ci sp]
+31.2 +24.4 67 +43 +53 опасность
перегрева
1009.4 1009.0
15 10.01 СЗ 3 6000 м мгла ясно +31.0 +24.4 68 +43 +50 опасность
перегрева
1007.4 1007.0
18 10.01 ЮЗ 3 6000 м мгла 5/1 360 м
[Sc Ci sp]
+29.2 +25.2 79 +42 +42 опасность
перегрева
1008.2 1008.0 +32.0
21 10.01 ЮЗ 2 7000 м дымка ясно +28.8 +25.2 81 +42 +42 опасность
перегрева
1010.2 1010.0
00 11.01 З 3 6000 м дымка 3/3 330 м
[Sc]
+28.6 +25.6 84 +42 +42 опасность
перегрева
1010.3 1010.0
09 11.01 СЗ 2 6000 м мгла 3/1 480 м
[Cu hum Ac trans]
+29.2 +25.2 79 +42 +49 опасность
перегрева
1011.9 1012.0
12 11.01 ЮЗ 4 6000 м мгла 1/1 500 м
[Cu med, cong]
+31.3 +24.9 69 +45 +56 опасность
перегрева
1009.3 1009.0
15 11.01 ЮЗ 5 6000 м мгла 8/0
[Ac trans]
+30.5 +25.3 74 +44 +47 опасность
перегрева
1007.2 1007.0
18 11.01 Ю 5 6000 м дымка 9/0
[Ac trans]
+29.5 +25.7 80 +44 +44 опасность
перегрева
1007.6 1008.0 +32.0
21 11.01 ЮЗ 3 8000 м дымка 5/3 330 м
[Sc Ac trans]
+29.0 +26.0 84 +44 +44 опасность
перегрева
1009.9 1010.0
03 12.01 ЮЗ 3 6000 м дымка 4/0
[Ac trans]
+27.6 +25.6 89 +41 +41 опасность
перегрева
1008.8 1009.0
06 12.01 ЮЗ 3 6000 м дымка ясно +27.0 +25.0 89 +39 +39 очень
душно
1009.0 1009.0 +27.0
09 12.01 ЮЗ 1 6000 м мгла ясно +30.0 +25.3 76 +44 +54 опасность
перегрева
1010.8 1011.0
12 12.01 ЮЗ 3 6000 м мгла 3/3 500 м
[Cu med, cong]
+31.6 +25.2 69 +46 +56 опасность
перегрева
1008.6 1009.0
21 12.01 ЮЗ 4 6000 м дымка 3/3 300 м
[Sc]
+29.2 +26.2 84 +44 +44 опасность
перегрева
1010.7 1011.0
00 13.01 8000 м дымка н/о +28.8 +26.2 86 +44 +44 опасность
перегрева
1010.6 1011.0
12 13.01 ЮЗ 3 8000 м мгла 3/3 480 м
[Cu med, cong]
+31.8 +25.2 68 +46 +57 опасность
перегрева
1011.0 1011.0
15 13.01 ЮЗ 5 8000 м мгла 1/1 480 м
[Cu med, cong]
+31.5 +26.1 73 +47 +52 опасность
перегрева
1008.4 1008.0
15 14.01 ЮЗ 3 8000 м мгла 5/0
[Ci sp]
+31.5 +25.4 70 +46 +52 опасность
перегрева
1009.2 1009.0
21 14.01 ЮЗ 2 8000 м дымка 5/5 60 м
[]
+25.0 +25.4 100 +36 +36 очень
душно
1011.8 1012.0
06 15.01 З 2 8000 м дымка ясно +27.2 +25.6 91 +40 +40 очень
душно
1010.5 1011.0 +27.2
09 15.01 ЮЗ 3 8000 м мгла 4/4 480 м
[Cu med, cong]
+29.6 +24.9 76 +42 +47 опасность
перегрева
1012.5 1013.0
12 15.01 З 4 6000 м мгла 3/3 500 м
[Cu med, cong]
+31.8 +25.4 69 +46 +54 опасность
перегрева
1011.1 1011.0
15 15.01 ЮЗ 6 6000 м мгла 1/1 500 м
[Cu med, cong]
+31.6 +26.2 73 +48 +50 опасность
перегрева
1008.5 1009.0
21 15.01 ЮЗ 2 6000 м дымка 5/3 360 м
[Sc Ci sp]
+29.0 +24.6 77 +41 +41 опасность
перегрева
1011.8 1012.0
03 16.01 ЮЗ 3 6000 м дымка 4/4 330 м
[Sc]
+28.2 +25.8 87 +42 +42 опасность
перегрева
1009.6 1010.0

 

Местоположение метеостанции Тема (Гана): широта 5.62 долгота 0.00 высота над уровнем моря 18 м.

В архиве по умолчанию представлена погода в Тема за последнюю неделю. Архивные данные за месяц целиком и за предыдущие месяцы, начиная с января 2011 года, Вы можете получить, выбрав интересующий диапазон дат из раскрывающегося списка и нажав кнопку "Ввод!".


*Определитесь, кто Вы:
робот инопланетянин человек

Внимание! Время в таблицах - всемирное. Для получения местного времени необходимо прибавить поправку, которая равна 1 ч.

Смотрите также архив погоды в соседних городах и на ближайших метеорологических станциях:

Погода в Аккра (Гана) (19 км)
Погода в Акюсе (Гана) (55 км)
Погода в Кофоридуа (Гана) (58 км)
Погода в Ада (Гана) (72 км)
Погода в Акатзи (Гана) (105 км)
Погода в Аким Ода (Гана) (114 км)
Погода в Хо (Гана) (121 км)
Погода в Солтпонде (Гана) (127 км)
Погода в Абетифи (Гана) (143 км)
Погода в Ломе (Того) (151 км)

Пояснения к столбцам:

Ветер - указаны скорость ветра в м/с - средняя за 10 мин, порывы в срок и между сроками (в фигурных скобках) и направление, откуда дует ветер: С - северный, СВ - северо-восточный, В - восточный, ЮВ - юго-восточный, Ю - южный, ЮЗ - юго-западный, З - западный, СЗ - северо-западный.
Видимость - горизонтальная дальность видимости в метрах или километрах. При видимости от 1 до 10 км при отсутствии осадков обычно наблюдается дымка, при ухудшении видимости до 1 км и менее - туман. В сухую погоду видимость может ухудшаться дымом, пылью или мглою.
Явления - указаны атмосферные явления, наблюдавшиеся в срок или в последний час перед сроком; фигурными скобками обозначены явления, наблюдавшиеся между сроками (за 1-3 часа до срока); квадратными скобками обозначены град или гололедные отложения с указанием их диаметра в мм.
Облачность - указаны через наклонную черту общая и нижняя облачность в баллах и высота нижней границы облаков в метрах; квадратными скобками обозначены формы облаков: Ci - перистые, Cs - перисто-слоистые, Cc - перисто-кучевые, Ac - высококучевые, As - высокослоистые, Sc - слоисто-кучевые, Ns - слоисто-дождевые, Cu - кучевые, Cb - кучево-дождевые. Подробнее классификацию облаков см. в Атласе облаков (PDF).
T - Температура воздуха - температура, измеренная на высоте 2 м над землей.
Td - Температура точки росы - температура, при понижении до которой содержащийся в воздухе водяной пар достигнет насыщения.
f - Относительная влажность воздуха - влажноcть воздуха, измеренная на высоте 2 м над землей.
Te - Эффективная температура - температура, которую ощущает одетый по сезону человек в тени. Характеристика душности погоды. При расчете учитывается влияние влажности воздуха и скорости ветра на теплоощущения человека.
Tes - Эффективная температура на солнце - температура, которую ощущает человек, с поправкой на солнечный нагрев. Характеристика знойности погоды. Зависит от высоты солнца над горизонтом, облачности и скорости ветра. Ночью, в пасмурную погоду, а также при ветре 12 м/с и более поправка равна нулю.
P - Атмосферное давление - приведенное к уровню моря атмосферное давление.
Po - Атмосферное давление - измеренное на уровне метеостанции атмосферное давление.
Tmin - Минимальная температура - минимум температуры воздуха на высоте 2 м над землей.
Tmax - Максимальная температура - максимум температуры воздуха на высоте 2 м над землей.
R - Количество осадков - Количество выпавших осадков за период времени, мм. При наведении курсора мыши на число - период времени, за который выпало указанное количество осадков.
R24 - Количество осадков - Количество выпавших осадков за 24 часа, мм.
S - Снежный покров - Высота снежного покрова, см. При наведении курсора мыши на число - состояние снежного покрова и степень покрытия местности в баллах.